Location: Arroyo de Valdeoliva
(40.1604°N, 4.9878°W)
Time: 08:51:11
(UTC+00:00)

Cosmos 1825 Rocket - Pass Details

Date: 18 March 2026
Orbit: 596 x 624 km, 82.5° (Epoch: 18 April)

Event Time Altitude Azimuth Distance (km) Brightness Sun altitude
Rises 19:10:44 0° 210° (SSW) 2,887 7.3 -8.6°
Reaches altitude 10° 19:13:08 10° 220° (SW) 1,987 6.6 -9.1°
Maximum altitude 19:17:05 32° 284° (WNW) 1,084 5.7 -9.8°
Drops below altitude 10° 19:21:04 10° 347° (NNW) 2,002 6.5 -10.6°
Sets 19:23:30 0° 358° (N) 2,912 7.2 -11.0°
